Location: Asheville, NC
(35.6000°N, 82.5500°W)
Time: 02:30:36
(UTC-04:00)

RS-15 - Pass Details

Date: 13 March 2018
Orbit: 1890 x 2154 km, 64.8° (Epoch: 20 June)

Event Time Altitude Azimuth Distance (km) Brightness Sun altitude
Exits shadow 02:37:31 36° 343° (NNW) 3,024 9.0 -54.7°
Drops below altitude 10° 02:45:33 10° 21° (NNE) 4,568 10.4 -53.9°
Sets 02:49:19 0° 29° (NNE) 5,537 11.0 -53.6°
